TimeHST,TemperatureF,Dew PointF,Humidity,Sea Level PressureIn,VisibilityMPH,Wind Direction,Wind SpeedMPH,Gust SpeedMPH,PrecipitationIn,Events,Conditions,WindDirDegrees,DateUTC
12:31 AM,71.1,64.9,81,30.03,10.0,Variable,5.8,-,N/A,,Overcast,0,2013-07-18 10:31:00
12:53 AM,71.1,64.9,81,30.02,10.0,Calm,Calm,-,N/A,,Mostly Cloudy,0,2013-07-18 10:53:00
1:15 AM,72.0,66.0,81,30.01,8.0,West,3.5,-,0.00,Rain,Light Rain,270,2013-07-18 11:15:00
1:53 AM,70.0,66.0,87,30.00,10.0,South,5.8,-,0.00,,Overcast,190,2013-07-18 11:53:00
2:53 AM,70.0,66.0,87,29.99,6.0,West,9.2,-,0.02,Rain,Light Rain,260,2013-07-18 12:53:00
3:23 AM,70.0,66.9,90,29.99,10.0,NE,3.5,-,0.00,,Overcast,50,2013-07-18 13:23:00
3:53 AM,70.0,66.9,90,29.99,9.0,West,6.9,-,0.01,Rain,Light Rain,260,2013-07-18 13:53:00
4:53 AM,69.1,64.9,87,30.00,10.0,West,6.9,-,0.01,,Overcast,260,2013-07-18 14:53:00
5:53 AM,69.1,64.0,84,30.01,10.0,SW,5.8,-,N/A,,Mostly Cloudy,230,2013-07-18 15:53:00
6:25 AM,70.0,64.0,81,30.02,10.0,ENE,8.1,-,0.00,Rain,Light Rain,70,2013-07-18 16:25:00
6:53 AM,70.0,64.0,81,30.03,10.0,WSW,4.6,-,0.00,,Overcast,240,2013-07-18 16:53:00
7:53 AM,72.0,66.0,81,30.04,10.0,WSW,3.5,-,N/A,,Overcast,250,2013-07-18 17:53:00
8:53 AM,78.1,66.0,66,30.04,10.0,Calm,Calm,-,N/A,,Overcast,0,2013-07-18 18:53:00
9:53 AM,81.0,66.0,60,30.03,10.0,Variable,4.6,-,N/A,,Mostly Cloudy,0,2013-07-18 19:53:00
10:39 AM,78.1,68.0,71,30.04,10.0,NNE,5.8,-,0.00,Rain,Light Rain,30,2013-07-18 20:39:00
10:53 AM,77.0,68.0,74,30.04,7.0,NW,4.6,-,0.02,Rain,Rain,320,2013-07-18 20:53:00
11:00 AM,77.0,69.1,76,30.04,9.0,Variable,4.6,-,0.00,Rain,Light Rain,0,2013-07-18 21:00:00
11:53 AM,82.0,69.1,65,30.02,10.0,East,6.9,-,0.02,,Overcast,100,2013-07-18 21:53:00
12:53 PM,81.0,68.0,65,30.01,10.0,East,10.4,-,N/A,,Mostly Cloudy,90,2013-07-18 22:53:00
1:53 PM,82.9,69.1,63,30.00,10.0,East,10.4,-,N/A,,Mostly Cloudy,90,2013-07-18 23:53:00
2:53 PM,78.1,66.9,68,29.99,10.0,SE,10.4,-,N/A,,Overcast,140,2013-07-19 00:53:00
3:53 PM,75.0,70.0,84,29.99,7.0,West,4.6,-,0.01,Rain,Heavy Rain,270,2013-07-19 01:53:00
4:18 PM,75.0,70.0,84,29.98,10.0,West,9.2,-,0.04,,Overcast,270,2013-07-19 02:18:00
4:53 PM,73.9,70.0,87,29.98,10.0,West,9.2,-,0.09,Rain,Light Rain,270,2013-07-19 02:53:00
5:02 PM,73.9,71.1,91,29.99,5.0,WSW,6.9,-,0.01,Rain,Light Rain,240,2013-07-19 03:02:00
5:53 PM,73.0,70.0,90,29.99,3.0,West,9.2,-,0.14,Rain,Light Rain,270,2013-07-19 03:53:00
6:05 PM,73.0,69.1,87,30.00,2.0,West,8.1,-,0.05,Rain,Rain,270,2013-07-19 04:05:00
6:29 PM,72.0,69.1,91,30.01,6.0,WSW,6.9,-,0.13,Rain,Light Rain,240,2013-07-19 04:29:00
6:53 PM,72.0,69.1,91,30.02,2.5,SW,6.9,-,0.14,Rain,Heavy Rain,230,2013-07-19 04:53:00
7:09 PM,72.0,69.1,91,30.02,7.0,West,8.1,-,0.06,Rain,Light Rain,280,2013-07-19 05:09:00
7:17 PM,72.0,69.1,91,30.02,8.0,West,8.1,-,0.06,Rain,Light Rain,260,2013-07-19 05:17:00
7:53 PM,72.0,68.0,87,30.03,10.0,West,6.9,-,0.09,,Overcast,270,2013-07-19 05:53:00
8:53 PM,72.0,69.1,91,30.05,7.0,West,4.6,-,0.02,Rain,Light Rain,270,2013-07-19 06:53:00
9:53 PM,72.0,69.1,91,30.06,10.0,WSW,5.8,-,0.01,,Overcast,250,2013-07-19 07:53:00
10:33 PM,72.0,69.1,91,30.07,10.0,SW,4.6,-,N/A,,Overcast,220,2013-07-19 08:33:00
10:53 PM,72.0,68.0,87,30.07,10.0,WSW,5.8,-,N/A,,Overcast,240,2013-07-19 08:53:00
11:14 PM,72.0,68.0,87,30.07,10.0,WSW,5.8,-,N/A,,Overcast,250,2013-07-19 09:14:00
11:53 PM,72.0,69.1,91,30.06,10.0,WSW,4.6,-,N/A,,Mostly Cloudy,240,2013-07-19 09:53:00